Location: Balaclava NSW 2575, Australia
(34.4510°S, 150.4953°E)
Time: 16:10:01
(UTC+10:00)

Envisat - Pass Details

Date: 19 May 2021
Orbit: 764 x 766 km, 98.1° (Epoch: 18 June)

Event Time Altitude Azimuth Distance (km) Brightness Sun altitude
Rises 18:07:57 0° 180° (S) 3,265 6.1 -13.7°
Reaches altitude 10° 18:10:28 10° 189° (S) 2,331 5.4 -14.2°
Maximum altitude 18:15:00 32° 250° (WSW) 1,300 4.8 -15.1°
Drops below altitude 10° 18:19:29 10° 312° (NW) 2,306 6.4 -16.0°
Sets 18:21:58 0° 322° (NW) 3,225 7.1 -16.5°
